DW8642 Weather Reports


time (UTC)temp
C
wind
direction
speed
KPH
gust
KPH
rain 1hr
cm
rain 24hr
cm
rain mn
cm
humidity
%
barometer
mb
20260507190021 31 109 9.7 25.7 0.00 0.00 0.00 9 886.1
20260507184517 31 129 9.7 16.1 0.00 0.00 0.00 10 886.1
20260507183118 31 167 9.7 20.9 0.00 0.00 0.00 8 886.1
20260507181514 31 103 8.0 19.3 0.00 0.00 0.00 8 886.1
20260507180021 30 175 4.8 17.7 0.00 0.00 0.00 9 886.1
20260507174514 31 144 11.3 19.3 0.00 0.00 0.00 8 886.1
20260507173024 30 73 9.7 16.1 0.00 0.00 0.00 9 886.1
20260507171511 30 101 6.4 17.7 0.00 0.00 0.00 9 886.1
20260507170008 28 130 3.2 20.9 0.00 0.00 0.00 8 886.1
20260507164507 28 36 11.3 19.3 0.00 0.00 0.00 8 886.1
20260507163009 28 346 6.4 17.7 0.00 0.00 0.00 8 886.1
20260507161502 27 337 4.8 22.5 0.00 0.00 0.00 9 886.1
20260507154600 26 306 11.3 22.5 0.00 0.00 0.00 10 886.1
20260507153056 25 31 9.7 24.1 0.00 0.00 0.00 11 886.1
20260507151553 24 30 16.1 24.1 0.00 0.00 0.00 11 886.1
20260507150051 24 34 12.9 24.1 0.00 0.00 0.00 12 886.1
20260507144547 23 21 14.5 25.7 0.00 0.00 0.00 13 886.1
20260507143048 23 5 9.7 22.5 0.00 0.00 0.00 14 886.1
20260507141548 22 360 9.7 20.9 0.00 0.00 0.00 15 886.1
20260507140043 22 41 8.0 19.3 0.00 0.00 0.00 16 886.1
20260507134540 22 325 9.7 19.3 0.00 0.00 0.00 18 886.1
20260507133052 21 338 8.0 16.1 0.00 0.00 0.00 22 886.1
20260507131545 20 337 8.0 16.1 0.00 0.00 0.00 25 886.1
20260507130042 20 323 6.4 17.7 0.00 0.00 0.00 26 886.1
20260507124533 20 326 14.5 22.5 0.00 0.00 0.00 26 886.1
20260507123033 20 329 11.3 22.5 0.00 0.00 0.00 26 886.1
20260507121532 20 336 14.5 22.5 0.00 0.00 0.00 26 886.1
20260507120033 20 324 9.7 20.9 0.00 0.00 0.00 26 886.1
20260507114537 20 319 11.3 19.3 0.00 0.00 0.00 27 886.1
20260507113029 18 285 4.8 12.9 0.00 0.00 0.00 29 886.1
20260507111534 18 292 4.8 14.5 0.00 0.00 0.00 29 886.1
20260507110029 18 293 6.4 14.5 0.00 0.00 0.00 29 886.1
20260507104529 18 280 3.2 11.3 0.00 0.00 0.00 29 886.1
20260507103027 18 284 4.8 12.9 0.00 0.00 0.00 29 886.1
20260507101528 18 275 4.8 9.7 0.00 0.00 0.00 28 886.1
20260507100027 18 280 4.8 8.0 0.00 0.00 0.00 27 886.1
20260507094525 19 321 3.2 12.9 0.00 0.00 0.00 27 886.1
20260507093026 18 265 6.4 11.3 0.00 0.00 0.00 27 886.1
20260507091530 18 238 4.8 11.3 0.00 0.00 0.00 27 886.1
20260507090024 18 232 4.8 6.4 0.00 0.00 0.00 26 886.1
20260507084519 19 230 3.2 4.8 0.00 0.00 0.00 26 886.1
20260507083019 19 240 4.8 8.0 0.00 0.00 0.00 26 886.1
20260507081517 20 241 3.2 8.0 0.00 0.00 0.00 25 886.1
20260507080022 20 202 4.8 8.0 0.00 0.00 0.00 25 886.1
20260507074516 20 223 3.2 8.0 0.00 0.00 0.00 25 886.1
20260507073014 20 232 6.4 9.7 0.00 0.00 0.00 26 886.1
20260507071511 21 232 1.6 4.8 0.00 0.00 0.00 25 886.1
20260507070012 20 254 1.6 4.8 0.00 0.00 0.00 25 886.1
20260507064508 20 244 1.6 6.4 0.00 0.00 0.00 25 886.1
20260507063008 20 275 3.2 9.7 0.00 0.00 0.00 25 886.1
20260507061507 20 262 3.2 8.0 0.00 0.00 0.00 24 886.1
20260507060006 21 360 1.6 4.8 0.00 0.00 0.00 24 886.1
20260507054515 22 269 1.6 11.3 0.00 0.00 0.00 23 886.1
20260507053006 21 281 4.8 12.9 0.00 0.00 0.00 24 886.1
20260507051505 22 220 4.8 12.9 0.00 0.00 0.00 24 886.1
20260507050005 22 284 4.8 14.5 0.00 0.00 0.00 24 886.1
20260507044503 22 267 8.0 17.7 0.00 0.00 0.00 24 886.1
20260507043009 22 272 12.9 19.3 0.00 0.00 0.00 25 886.1
20260507041503 22 279 11.3 17.7 0.00 0.00 0.00 25 886.1
20260507040002 22 311 8.0 14.5 0.00 0.00 0.00 25 886.1
20260507034502 22 281 11.3 19.3 0.00 0.00 0.00 24 886.1
20260507033001 22 269 6.4 19.3 0.00 0.00 0.00 24 886.1
20260507031600 22 247 9.7 16.1 0.00 0.00 0.00 24 886.1
20260507030100 22 267 8.0 14.5 0.00 0.00 0.00 24 886.1
20260507024608 22 271 6.4 14.5 0.00 0.00 0.00 23 886.1
20260507023059 23 232 3.2 16.1 0.00 0.00 0.00 23 886.1
20260507021606 23 272 8.0 14.5 0.00 0.00 0.00 23 886.1
20260507020113 23 227 6.4 17.7 0.00 0.00 0.00 23 886.1
20260507014605 23 360 3.2 16.1 0.00 0.00 0.00 22 886.1
20260507013059 24 271 3.2 12.9 0.00 0.00 0.00 21 886.1
20260507011556 25 192 4.8 14.5 0.00 0.00 0.00 20 886.1
20260507004604 26 250 8.0 17.7 0.00 0.00 0.00 19 886.1
20260507003055 26 277 6.4 12.9 0.00 0.00 0.00 19 886.1
20260507001555 26 309 3.2 19.3 0.00 0.00 0.00 19 886.1
20260507000053 27 272 8.0 17.7 0.00 0.00 0.00 19 886.1
20260506234554 26 200 6.4 19.3 0.00 0.00 0.00 19 886.1
20260506233108 27 266 8.0 20.9 0.00 0.00 0.00 19 886.1
20260506231556 26 281 9.7 20.9 0.00 0.00 0.00 20 886.1
20260506230053 27 238 9.7 19.3 0.00 0.00 0.00 18 886.1
20260506224554 27 215 8.0 17.7 0.00 0.00 0.00 19 886.1
20260506223053 27 321 3.2 17.7 0.00 0.00 0.00 19 886.1
20260506221549 27 284 4.8 22.5 0.00 0.00 0.00 19 886.1
20260506220048 26 284 1.6 16.1 0.00 0.00 0.00 20 886.1
20260506214550 27 312 9.7 19.3 0.00 0.00 0.00 19 886.1
20260506213103 27 303 8.0 20.9 0.00 0.00 0.00 19 886.1
20260506211547 26 311 4.8 14.5 0.00 0.00 0.00 21 886.1
20260506210045 26 317 6.4 16.1 0.00 0.00 0.00 21 886.1
20260506204543 26 29 6.4 19.3 0.00 0.00 0.00 20 886.1
20260506203043 25 215 11.3 19.3 0.00 0.00 0.00 22 886.1
20260506201543 25 192 6.4 17.7 0.00 0.00 0.00 21 886.1
20260506200043 27 258 11.3 19.3 0.00 0.00 0.00 20 886.1
20260506194540 25 294 6.4 22.5 0.00 0.00 0.00 22 886.1
20260506193039 25 294 12.9 22.5 0.00 0.00 0.00 22 886.1
20260506191540 23 95 4.8 19.3 0.00 0.00 0.00 24 886.1